This demonstration page uses our WeatherBlox Daily Observations layout. Learn more.

41.55636, -103.73856

Hourly Observations for May 26, 2015

Temp ( °F °C ) Dew Point ( °F °C ) Humidity (%) Winds ( mph kmh ) Pressure ( in mb ) Visibility ( mi km ) Precip ( " mm )
12:12 am 00:12 Cloudy 50 10 48 9 94 94 NNW 6 9 29.91 1013 10 16.09344 0 0
12:53 am 00:53 Cloudy with Mist and Fog 48 9 48 9 100 100 W 5 7 29.94 1014 2 3.218688 0 0
12:57 am 00:57 Cloudy with Mist and Fog 48 9 48 9 100 100 W 6 9 29.94 1014 0.75 1.207008 0 0
1:11 am 01:11 Cloudy with Mist and Fog 48 9 48 9 100 100 W 5 7 29.94 1014 2 3.218688 0 0
1:19 am 01:19 Cloudy with Mist and Fog 48 9 48 9 100 100 W 6 9 29.94 1014 4 6.437376 0 0
1:53 am 01:53 Mostly Clear with Mist and Fog 46 8 46 8 100 100 Calm 29.94 1014 4 6.437376 0 0
2:12 am 02:12 Clear with Mist and Fog 46 8 46 8 100 100 W 3 6 29.91 1013 1.5 2.414016 0 0
2:23 am 02:23 Clear with Mist and Fog 46 8 46 8 100 100 W 5 7 29.91 1013 3 4.828032 0 0
2:47 am 02:47 Mostly Clear with Mist and Fog 45 7 45 7 100 100 NW 6 9 29.97 1015 0.75 1.207008 0 0
2:48 am 02:48 Mostly Clear with Mist and Fog 45 7 45 7 100 100 NW 6 9 29.97 1015 0.75 1.207008 0 0
3:09 am 03:09 Cloudy with Mist and Fog 46 8 46 8 100 100 NNW 5 7 29.94 1014 0.75 1.207008 0 0
3:20 am 03:20 Cloudy with Mist and Fog 46 8 46 8 100 100 NNW 3 6 29.94 1014 2 3.218688 0 0
3:28 am 03:28 Cloudy with Mist and Fog 46 8 46 8 100 100 Calm 29.94 1014 6 9.656064 0 0
3:53 am 03:53 Cloudy 46 8 46 8 100 100 WNW 5 7 29.94 1014 7 11.265408 0 0
4:53 am 04:53 Cloudy with Mist and Fog 46 8 46 8 100 100 WNW 3 6 29.94 1014 6 9.656064 0 0
5:09 am 05:09 Cloudy with Mist and Fog 46 8 46 8 100 100 Calm 29.94 1014 6 9.656064 0 0
5:14 am 05:14 Cloudy with Mist and Fog 46 8 46 8 100 100 W 3 6 29.94 1014 1.75 2.816352 0 0
5:18 am 05:18 Cloudy with Fog 46 8 46 8 100 100 W 3 6 29.94 1014 0.5 0.804672 0 0
5:27 am 05:27 Mostly Cloudy with Fog 46 8 46 8 100 100 WNW 3 6 29.94 1014 0.25 0.402336 0 0
5:53 am 05:53 Cloudy with Fog 46 8 45 7 93 93 WNW 5 7 29.97 1015 0.25 0.402336 0 0
6:00 am 06:00 Cloudy with Mist and Fog 46 8 46 8 100 100 WNW 5 7 29.97 1015 0.75 1.207008 0 0
6:05 am 06:05 Cloudy with Mist and Fog 46 8 46 8 100 100 WNW 5 7 29.97 1015 2 3.218688 0 0
6:12 am 06:12 Cloudy with Mist and Fog 46 8 46 8 100 100 WNW 6 9 29.97 1015 6 9.656064 0 0
6:53 am 06:53 Cloudy 48 9 48 9 100 100 WNW 6 9 29.97 1015 8 12.874752 0 0
7:53 am 07:53 Sunny 54 12 50 10 88 88 W 7 11 29.91 1013 10 16.09344 0 0
8:00 am 08:00 Partly Cloudy 54 12 52 11 94 94 W 6 9 29.91 1013 10 16.09344 0 0
8:53 am 08:53 Cloudy 57 14 52 11 82 82 WNW 3 6 29.91 1013 10 16.09344 0 0
9:53 am 09:53 Cloudy 59 15 52 11 77 77 Calm 29.91 1013 10 16.09344 0 0
10:53 am 10:53 Cloudy 63 17 52 11 68 68 undefined N/A 29.88 1012 10 16.09344 0 0
11:53 am 11:53 Cloudy 66 19 52 11 60 60 Calm 29.83 1010 10 16.09344 0 0
12:53 pm 12:53 Mostly Cloudy 66 19 52 11 60 60 SE 9 15 29.83 1010 10 16.09344 0 0
1:53 pm 13:53 Partly Cloudy 66 19 54 12 64 64 ESE 10 17 29.83 1010 10 16.09344 0 0
2:53 pm 14:53 Mostly Sunny 70 21 52 11 53 53 ESE 13 20 29.77 1008 10 16.09344 0 0
3:53 pm 15:53 Mostly Sunny 68 20 52 11 56 56 SE 13 20 29.8 1009 10 16.09344 0 0
4:53 pm 16:53 Sunny 70 21 48 9 46 46 SE 9 15 29.77 1008 10 16.09344 0 0
5:53 pm 17:53 Sunny 70 21 48 9 46 46 ESE 13 20 29.77 1008 10 16.09344 0 0
6:53 pm 18:53 Partly Cloudy 66 19 50 10 56 56 SSE 12 19 29.8 1009 10 16.09344 0 0
7:53 pm 19:53 Mostly Sunny 64 18 52 11 64 64 SSE 8 13 29.83 1010 10 16.09344 0 0
8:53 pm 20:53 Mostly Clear 61 16 52 11 72 72 undefined N/A 29.85 1011 10 16.09344 0 0
9:53 pm 21:53 Partly Cloudy 59 15 52 11 77 77 E 7 11 29.91 1013 10 16.09344 0 0
10:53 pm 22:53 Clear 57 14 52 11 82 82 E 7 11 29.91 1013 10 16.09344 0 0
11:53 pm 23:53 Mostly Clear 55 13 52 11 88 88 SE 5 7 29.94 1014 10 16.09344 0 0

Powered by AerisWeather